Moses Lake, Washington, United States (98837)
Lat: 47.13N, Lon: 119.28W
Wx Zone: WAZ034
Local Info
Past Weather Observations for Sunday, August 24, 2014

NOTE: This archive is for the closest National Weather Service station to Moses Lake. Information may differ from the station used for current weather conditions.

Click here for Long-term Archive

Time Weather Temperature Dewpoint Humidity Pressure Winds Precip Visibility
23:52
Clear
59°F / 15°C 48°F / 9°C 68% 29.98 in
(1015 mb)
N 6.9 mph
(N 11 kph)
- 10SM
22:52
Clear
61°F / 16°C 48°F / 9°C 63% 29.98 in
(1015 mb)
N 8.1 mph
(N 13 kph)
- 10SM
21:52
Clear
61°F / 16°C 48°F / 9°C 63% 29.95 in
(1014 mb)
N 8.1 mph
(N 13 kph)
- 10SM
20:52
Clear
64°F / 18°C 48°F / 9°C 56% 29.95 in
(1014 mb)
N 9.2 mph
(N 15 kph)
- 10SM
19:52
Clear
68°F / 20°C 46°F / 8°C 46% 29.95 in
(1014 mb)
NNE 6.9 mph
(NNE 11 kph)
- 10SM
18:52
Clear
73°F / 23°C 46°F / 8°C 38% 29.95 in
(1014 mb)
NNE 10.4 mph
(NNE 17 kph)
- 10SM
17:52
Fair
79°F / 26°C 46°F / 8°C 32% 29.92 in
(1013 mb)
N 13.8 mph
(N 22 kph)
- 10SM
16:52
Clear
81°F / 27°C 45°F / 7°C 28% 29.92 in
(1013 mb)
NNE 10.4 mph
(NNE 17 kph)
- 10SM
15:52
Clear
82°F / 28°C 45°F / 7°C 26% 29.92 in
(1013 mb)
N 10.4 mph
(N 17 kph)
- 10SM
14:52
Clear
81°F / 27°C 46°F / 8°C 30% 29.95 in
(1014 mb)
N 17.3 mph
(N 28 kph)
- 10SM
13:52
Clear
81°F / 27°C 46°F / 8°C 30% 29.95 in
(1014 mb)
N 16.1 mph
(N 26 kph)
- 10SM
12:52
Clear
79°F / 26°C 46°F / 8°C 32% 29.95 in
(1014 mb)
NE 20.7 mph
(NE 33 kph)
- 10SM
11:52
Partly Cloudy
75°F / 24°C 50°F / 10°C 41% 29.98 in
(1015 mb)
ENE 13.8 mph
(ENE 22 kph)
- 10SM
10:52
Mostly Cloudy
79°F / 26°C 48°F / 9°C 34% 29.98 in
(1015 mb)
NE 9.2 mph
(NE 15 kph)
- 10SM
09:52
Mostly Cloudy
75°F / 24°C 48°F / 9°C 39% 29.98 in
(1015 mb)
ENE 6.9 mph
(ENE 11 kph)
- 10SM
08:52
Partly Cloudy
68°F / 20°C 50°F / 10°C 53% 29.98 in
(1015 mb)
Calm - 10SM
07:52
Clear
64°F / 18°C 48°F / 9°C 56% 29.98 in
(1015 mb)
Variable 3.5 mph
(Variable 6 kph)
- 10SM
06:52
Partly Cloudy
61°F / 16°C 48°F / 9°C 63% 29.98 in
(1015 mb)
NE 6.9 mph
(NE 11 kph)
- 10SM
05:52
Overcast
57°F / 14°C 48°F / 9°C 72% 29.98 in
(1015 mb)
N 4.6 mph
(N 7 kph)
- 10SM
04:52
Mostly Cloudy
57°F / 14°C 48°F / 9°C 72% 29.98 in
(1015 mb)
NNE 5.8 mph
(NNE 9 kph)
- 10SM
03:52
Clear
55°F / 13°C 46°F / 8°C 72% 29.98 in
(1015 mb)
NNE 6.9 mph
(NNE 11 kph)
- 10SM
02:52
Clear
55°F / 13°C 46°F / 8°C 72% 29.98 in
(1015 mb)
N 4.6 mph
(N 7 kph)
- 10SM
01:52
Fair
61°F / 16°C 46°F / 8°C 59% 29.98 in
(1015 mb)
N 3.5 mph
(N 6 kph)
- 10SM
00:52
Clear
61°F / 16°C 46°F / 8°C 59% 29.98 in
(1015 mb)
Calm - 10SM
Time Weather Temperature Dewpoint Humidity Pressure Winds Precip Visibility


Weather for websites

WeatherForYou.com, LLC is not responsible for any damages or problems caused by this service. Current weather conditions are obtained from the closest station including government and personal stations which may have varying degrees of accuracy. Weather forecasts are derived from the NOAA NDFD. Like all things, this site belongs to Jesus Christ... He just trusts me to maintain it. If you have any questions or comments email webmaster@weatherforyou.com

Copyright © 2014, WeatherForYou.com LLC. All rights reserved.